Баяут

Узбекистан     40°16′51″N   69°01′30″E
темп.,
°C
ветер,
м/с
пор.,
м/с
влажн.,
%
обл.,
%
осадки,
мм/ч
давл.,
гПа
погр.,
м
21 июня, пн
пн2123:00+22юз45250 0.0 101059
02:00+19зюз48280 0.0 1011122
05:00+18юз49260 0.0 1012149
08:00+23з45200 0.0 1012485
11:00+29сз44170 0.0 10121114
14:00+32зсз44150 0.0 10111804
17:00+33сз45130 0.0 10102273
20:00+27з34140 0.0 101122
22 июня, вт
вт2223:00+23юз33160 0.0 101116
02:00+23ю22170 0.0 101011
05:00+20зсз00210 0.0 101011
08:00+28ююз11160 0.0 1011221
11:00+33ссз43170 0.0 10102041
14:00+36сз44160 0.0 10082999
17:00+35ссз76160 0.0 10082750
20:00+27сз49200 0.0 1009153
23 июня, ср
ср2323:00+23юз56240 0.0 101072
02:00+21зюз44264 0.0 101048
05:00+18зюз34330 0.0 101156
08:00+24з45260 0.0 1012486
11:00+29зсз44190 0.0 10111107
14:00+33зсз44140 0.0 10091667
17:00+34зсз33130 0.0 10092046
20:00+27зсз33190 0.0 100916
24 июня, чт
чт2423:00+25юз44210 0.0 100938
02:00+21зюз57260 0.0 1009103
05:00+19юз48280 0.0 1010114
08:00+26з56210 0.0 1010502
11:00+31зсз55160 0.0 10091243
14:00+35зсз55120 0.0 10072053
17:00+35з66110 0.0 10062457
20:00+29зюз45190 0.0 100746
25 июня, пт
пт2523:00+26ююз32240 0.0 100611
02:00+24юз33290 0.0 100624
05:00+21зюз58360 0.0 1008125
08:00+26з67420 0.0 1009634
11:00+30зсз55330 0.0 10091506
14:00+33зсз55250 0.0 10072212
17:00+32сз762211 0.0 10072023
20:00+27зсз332167 0.0 100832